User: anonymous
Location: Muenchen
(48.1800°N, 11.5800°E)
Time: 20:26:20
(UTC+02:00)
Language:

Cosmos 2233 Rocket - Orbit

View from above orbital plane
View from above orbital plane
View from above satellite
View from above satellite

Ground track
Ground track

The orbit data is extracted from the following two-line orbital elements,

1 22488U 93008B   14109.43241502  .00000074  00000-0  59168-4 0  8421
2 22488 082.9452 217.6948 0025007 218.1816 210.9070 13.77613834 65265
Epoch (UTC): 19 April 2014 10:22:40
Eccentricity: 0.0025007
inclination: 82.9452°
perigee height: 954 km
apogee height: 991 km
right ascension of ascending node: 217.6948°
argument of perigee: 218.1816°
revolutions per day: 13.77613834
mean anomaly at epoch: 210.9070°
orbit number at epoch: 6526

The dashed part of the orbit path shows where the satellite is in the earth's shadow,  

DLR